SCP
0 0 0 0 0 0 0 0 0 0 0 0 0 0 0 0 0 0 0 0 0 0 0 0 0 0 0 0 0 0 0 -0 -0 -0 -0 -0 -0 -0 -0 -0 0 0 0 0
0 0 0 0 0 0 0 0 0 0 0 0 0 0 0 0 0 0 0 0 0 0 0 0 0 0 0 0 0 0 -0 -0 -0 -0 -0 -0 -0 -0 -0 0 0 -0 0 0
0 0 0 0 0 0 0 0 0 0 0 0 0 0 0 0 0 0 0 0 0 0 0 0 0 0 0 0 -0 -0 -0 -0 -0 -0 -0 -0 -0 -0 -0 0 0 0 0 0
0 0 0 0 0 0 0 0 0 0 0 0 0 0 0 0 0 0 0 0 0 0 0 0 0 0 0 -0 -0 -0 -0 -0 -0 -0 -0 -0 -0 -0 -0 -0 -0 -0 -0 -0
0 0 0 0 0 0 0 0 0 0 0 0 0 0 0 0 0 0 0 0 0 0 0 0 0 0 -0 -0 -0 -0 -0 -0 -0 -0 -0 -0 -0 -0 -0 -0 -0 -0 -0 -0
0 0 0 0 0 0 0 0 0 0 0 0 0 0 0 0 0 0 0 0 0 0 0 0 0 -0 -0 -0 -0 -0 -0 -0 -0 -0 -0 -0 -0 -0 -0 0 0 0 -0 -0
0 0 0 0 0 0 0 0 0 0 0 0 0 0 0 0 0 0 0 0 0 0 0 0 0 0 0 -0 -0 -0 -0 -0 -0 -0 -0 0 0 0 0 0 0 -0 -0 -0
0 0 0 0 0 0 0 0 0 0 0 0 0 0 0 0 0 0 0 0 0 0 0 0 0 0 -0 -0 -0 -0 -0 -0 -0 -0 -0 0 0 0 0 0 0 -0 -0 -0
0 0 0 0 0 0 0 0 0 0 0 0 0 0 0 0 0 0 0 0 0 0 0 0 0 -0 -0 -0 -0 -0 -0 -0 -0 -0 0 -0 0 0 0 0 0 0 0 0
0 0 0 0 0 0 0 0 0 0 0 0 0 0 0 0 0 0 0 0 0 0 0 0 0 -0 -0 -0 -0 -0 -0 -0 -0 -0 0 0 0 0 0 0 0 0 0 0
0 0 0 0 0 0 0 0 0 0 0 0 0 0 0 0 0 0 0 0 0 0 0 0 0 -0 -0 -0 -0 -0 -0 -0 -0 -0 0 0 0 0 0 0 0 0 0 0
0 0 0 0 0 0 0 0 0 0 0 0 0 0 0 0 0 0 0 0 0 0 0 0 0 0 0 0 0 0 0 0 0 0 0 0 0 0 0 0 0 0 0 0
0 0 0 0 0 0 0 0 0 0 0 0 0 0 0 0 0 0 0 0 0 0 0 0 0 0 0 0 0 0 0 0 0 0 0 0 0 0 0 0 0 0 0 0
0 0 0 0 0 0 0 0 0 0 0 0 0 0 0 0 0 0 0 0 0 0 0 0 0 0 0 0 0 0 0 0 0 0 0 0 0 0 0 0 0 0 0 0
0 0 0 0 0 0 0 0 0 0 0 0 0 0 0 0 0 0 0 0 0 0 0 0 0 0 0 0 0 0 0 0 0 0 0 0 0 0 0 0 0 0 0 0
0 0 0 0 0 0 0 0 0 0 0 0 0 0 0 0 0 0 0 0 0 0 0 0 0 0 0 0 0 0 0 0 0 0 0 0 0 0 0 0 0 0 0 0
0 0 0 0 0 0 0 0 0 0 0 0 0 0 0 0 0 0 0 0 0 0 0 0 0 0 0 0 0 0 0 0 0 0 0 0 0 0 0 0 0 0 0 0
0 0 0 0 0 0 0 0 0 0 0 0 0 0 0 0 0 0 0 0 0 0 0 0 0 0 0 0 0 0 0 0 0 0 0 0 0 0 0 0 0 0 0 0
0 0 0 0 0 0 0 0 0 0 0 0 0 0 0 0 0 0 0 0 0 0 0 0 0 0 0 0 0 0 0 0 0 0 0 0 0 0 0 0 0 0 0 0
0 0 0 0 0 0 0 0 0 0 0 0 0 0 0 0 0 0 0 0 0 0 0 0 0 0 0 0 0 0 0 0 0 0 0 0 0 0 0 0 0 0 0 0
0 0 0 0 0 0 0 0 0 0 0 0 0 0 0 0 0 0 0 0 0 0 0 0 0 0 0 0 0 0 0 0 0 0 0 0 0 0 0 0 0 0 0 0
0 0 0 0 0 0 0 0 0 0 0 0 0 0 0 0 0 0 0 0 0 0 0 0 0 0 0 0 0 0 0 0 0 0 0 0 0 0 0 0 0 0 0 0
0 0 0 0 0 0 0 0 0 0 0 0 0 0 0 0 0 0 0 0 0 0 0 0 0 0 0 0 0 0 0 0 0 0 0 0 0 0 0 0 0 0 0 0
0 0 0 0 0 0 0 0 0 0 0 0 0 0 0 0 0 0 0 0 0 0 0 0 0 0 0 0 0 0 0 0 0 0 0 0 0 0 0 0 0 0 0 0
0 0 0 0 0 0 0 0 0 0 0 0 0 0 0 0 0 0 0 0 0 0 0 0 0 0 0 0 0 0 0 0 0 0 0 0 0 0 0 0 0 0 -0 -0
0 0 0 0 0 0 0 0 0 0 0 0 0 0 0 0 0 0 0 0 0 0 0 0 0 0 0 0 0 0 0 0 0 0 0 0 0 0 0 0 0 0 0 0
Wind_Speed_500mb
1 7 11 18 13 6 4 5 3 5 10 4 5 0 13 27 39 38 34 31 32 30 27 30 34 35 35 36 39 45 52 57 62 67 70 67 65 61 60 62 58 60 67 65
6 11 19 8 10 10 10 7 4 3 11 4 1 3 12 14 14 28 33 27 24 19 21 28 35 40 43 45 48 52 55 59 65 69 72 73 74 70 65 64 67 67 66 68
11 12 6 13 10 8 5 7 5 5 7 9 6 11 10 10 30 29 25 24 22 16 16 24 33 42 46 51 56 61 65 66 65 67 66 68 73 74 74 73 71 67 73 73
11 16 14 10 11 14 9 3 8 8 5 7 0 9 6 11 12 14 25 23 20 12 14 23 32 41 47 54 60 64 69 69 67 65 64 65 69 77 80 80 77 75 72 75
15 4 9 11 11 12 10 7 5 4 5 4 4 2 4 16 10 12 19 21 14 10 11 19 28 36 44 53 60 65 69 69 67 65 63 64 63 64 68 73 80 82 81 79
14 4 5 11 5 6 16 10 14 10 5 8 19 17 9 12 13 14 18 17 11 6 10 16 24 32 42 52 61 70 67 64 63 62 59 60 63 67 71 72 74 80 84 82
2 8 7 11 11 5 11 13 2 5 1 12 0 7 10 4 18 24 27 22 12 3 8 17 27 36 46 54 61 62 60 60 61 61 60 60 61 63 67 69 76 85 86 85
19 8 18 12 16 14 12 15 11 12 8 6 4 11 8 9 33 39 30 21 12 3 4 14 19 28 37 46 52 53 56 58 60 60 62 63 63 65 65 68 74 79 81 82
12 10 6 3 8 17 10 9 7 10 2 2 7 7 3 8 9 23 23 18 12 5 3 6 14 23 32 41 45 49 52 57 60 60 62 65 67 66 68 67 69 71 77 76
10 3 3 5 9 12 10 13 7 3 8 10 8 7 9 24 24 16 19 24 19 12 9 5 11 19 29 37 43 47 52 59 61 59 62 66 66 64 64 66 66 68 70 71
11 9 5 6 10 15 6 4 6 7 8 8 4 10 12 27 26 26 30 33 23 15 10 5 11 20 30 38 44 49 52 58 62 62 64 68 67 62 60 61 64 64 65 65
12 10 9 15 7 9 9 14 13 9 10 4 6 15 8 12 28 40 39 33 24 16 8 6 12 21 30 38 45 48 54 60 63 61 63 67 65 61 62 61 59 60 59 58
17 10 7 6 11 3 10 9 9 9 5 13 10 10 5 20 29 43 43 37 26 14 8 7 13 20 27 35 41 44 51 59 62 64 67 68 62 59 57 56 57 56 55 57
34 7 15 19 10 10 11 13 13 13 6 8 15 8 10 15 21 34 39 35 25 16 12 9 12 17 27 35 38 44 52 59 61 66 69 69 61 55 54 52 56 52 50 51
10 16 9 3 7 8 11 11 18 21 22 17 19 23 22 32 30 43 47 32 24 17 10 9 14 21 29 35 41 48 54 57 61 67 66 63 55 51 51 52 53 50 51 51
5 5 5 6 3 4 8 9 14 13 7 16 10 16 7 40 39 41 37 30 24 15 9 11 16 23 30 35 41 47 50 54 61 64 62 56 50 51 52 52 52 50 50 56
2 12 7 6 3 6 19 18 21 12 11 15 20 17 12 14 33 41 36 30 23 13 8 10 13 18 25 32 39 45 46 53 60 60 57 51 48 49 52 52 52 48 49 57
12 11 4 6 5 13 4 7 10 17 2 4 4 16 22 27 28 33 30 25 12 10 9 10 10 17 24 31 39 41 47 54 56 54 50 47 47 48 50 53 53 49 47 55
7 9 6 9 8 11 12 5 10 13 7 3 14 20 38 53 39 20 16 8 11 15 14 10 11 19 28 37 39 43 48 50 51 47 46 44 46 49 47 52 52 49 49 49
10 7 8 6 10 13 7 10 7 13 5 2 27 32 42 34 8 7 20 20 21 17 11 9 15 25 33 36 39 43 45 45 44 45 43 42 42 46 44 49 51 49 48 47
6 3 10 6 6 11 11 7 3 9 10 29 35 44 38 9 8 36 31 27 18 11 6 13 23 29 33 34 37 38 39 40 41 41 37 39 40 45 43 48 49 47 49 49
12 12 7 6 5 12 12 7 11 12 27 42 42 39 32 36 42 40 32 23 13 7 11 19 25 27 28 30 32 33 36 38 38 38 36 38 41 40 42 48 50 46 47 50
3 12 12 12 10 3 3 4 19 49 58 42 38 38 40 49 44 35 26 15 7 8 16 20 20 21 22 24 28 32 35 37 39 36 34 37 40 39 42 47 49 50 48 50
2 6 8 8 3 4 20 37 36 44 45 37 35 36 40 41 33 26 16 7 5 12 14 14 14 16 20 25 28 31 33 35 39 36 33 36 41 39 40 43 44 45 47 49
9 15 12 6 8 21 19 39 47 44 38 40 36 35 34 28 25 16 10 5 6 8 10 11 12 15 21 28 31 32 34 37 41 36 35 38 43 38 39 42 42 42 41 38
12 12 9 9 34 13 29 46 43 44 45 41 41 38 27 15 18 14 10 5 2 5 6 7 11 15 23 28 31 32 34 37 39 37 38 41 44 38 38 43 44 32 38 41
Wind_Direction_500mb
108 86 220 217 210 178 14 268 327 317 350 64 282 118 119 116 112 118 122 113 96 84 72 55 46 40 31 21 12 5 359 356 352 349 348 349 349 343 334 329 328 322 318 315
5 239 234 197 243 246 236 234 260 49 354 82 235 277 81 67 83 123 124 114 108 98 68 50 39 32 25 18 11 6 1 356 352 348 346 344 340 338 337 331 326 324 321 318
189 237 70 170 226 251 218 180 202 169 355 19 100 311 129 72 102 110 109 109 113 99 63 43 36 28 19 15 10 4 358 354 347 343 339 335 332 331 329 327 326 323 322 321
228 251 247 212 213 153 199 184 127 124 113 220 232 273 171 165 132 129 134 126 125 102 61 39 29 19 13 9 4 360 355 351 347 344 340 339 336 334 333 331 327 325 322 321
231 221 204 206 198 158 193 140 141 119 114 62 234 251 303 131 179 175 155 149 138 104 53 38 22 11 5 0 355 353 350 347 346 344 342 339 336 333 328 326 325 327 325 323
217 227 174 183 75 132 129 89 44 35 77 273 198 180 220 194 181 154 174 169 158 117 43 26 9 0 358 354 352 350 350 351 349 348 348 344 341 336 331 329 327 326 326 326
133 209 176 159 100 42 85 95 327 321 257 237 20 183 266 162 159 167 174 175 159 114 17 2 352 351 350 350 349 349 352 354 353 350 348 345 341 337 334 333 330 330 330 328
185 249 170 189 183 169 185 153 165 219 208 258 323 235 285 157 165 169 168 166 159 153 8 345 344 345 346 347 349 351 353 353 353 352 349 346 343 339 336 333 331 330 330 328
168 243 24 17 146 146 182 187 164 107 358 94 227 287 280 142 160 163 175 173 180 191 263 296 326 338 346 350 352 355 354 353 353 352 347 348 346 342 339 336 333 331 332 330
184 132 180 198 102 36 153 154 89 23 194 228 260 252 234 191 195 180 188 193 194 189 195 280 323 341 352 353 354 354 354 354 352 348 346 346 345 340 337 335 337 334 330 331
143 126 241 143 215 163 122 164 84 129 159 190 257 250 215 203 180 181 190 199 194 197 208 275 328 344 348 348 349 352 352 352 351 348 345 343 341 339 338 336 338 336 332 332
180 137 173 203 265 192 166 174 156 141 219 243 151 265 331 163 159 165 185 189 187 195 226 278 322 332 338 342 347 347 345 348 350 346 343 343 340 338 337 338 337 335 334 332
181 197 117 356 351 338 206 190 132 115 96 188 161 258 99 138 150 173 180 182 186 188 205 263 309 333 341 343 346 344 343 348 347 345 341 341 340 338 337 337 334 337 334 335
166 145 183 207 182 146 188 189 170 149 156 198 226 186 193 188 173 181 184 182 179 178 197 266 314 336 341 342 344 343 343 345 344 342 339 339 341 340 340 339 341 343 340 338
150 188 160 167 122 140 196 180 166 198 216 198 239 224 200 195 191 186 182 173 168 179 226 281 319 332 337 339 343 341 342 341 340 339 340 340 340 341 342 343 344 344 347 349
347 157 110 157 215 208 244 211 209 218 222 246 245 249 210 198 176 173 178 173 175 193 233 294 315 327 335 337 339 337 336 336 337 337 340 341 341 343 345 345 345 345 348 352
100 142 116 220 155 47 280 189 211 215 197 186 218 224 143 150 164 167 170 174 178 198 249 286 307 322 328 332 333 332 333 332 334 338 341 344 343 343 344 344 346 348 349 352
158 115 94 125 105 239 237 247 203 195 90 274 101 159 158 138 137 156 166 166 178 215 223 240 278 310 323 325 327 329 329 333 336 341 345 347 344 342 344 344 347 348 349 350
163 124 124 161 204 306 280 201 146 167 216 307 128 108 110 119 118 121 148 159 175 196 213 240 293 316 319 321 327 329 332 337 341 347 350 349 349 345 346 346 349 351 350 348
65 88 123 173 190 221 244 285 275 116 287 145 142 138 138 140 145 217 164 179 176 189 206 264 303 313 315 323 329 333 338 343 348 350 350 348 347 346 348 348 347 348 349 351
132 69 156 124 212 288 243 227 125 169 232 144 143 148 155 147 178 154 165 162 174 191 255 306 312 317 323 327 331 338 345 350 351 348 346 348 347 346 349 347 348 347 351 354
151 139 175 93 100 265 205 126 179 163 129 145 145 155 162 143 141 149 160 165 179 234 299 312 317 321 327 331 337 346 349 350 348 347 347 349 349 348 350 349 348 353 355 356
158 175 171 164 205 237 254 177 146 149 147 148 147 149 153 151 154 161 163 174 208 297 317 321 326 332 337 344 348 350 351 349 348 348 347 348 348 351 353 350 352 353 355 356
179 147 105 109 251 91 125 132 141 150 144 149 155 155 161 157 163 164 169 188 286 313 321 331 334 339 352 357 354 351 351 347 348 348 346 349 350 352 352 354 357 355 355 355
192 142 130 81 99 106 126 141 144 141 142 147 153 159 163 164 162 169 179 226 285 319 335 338 345 355 358 356 355 355 353 348 347 347 342 346 349 351 349 355 356 353 357 352
192 161 149 208 185 148 168 153 155 152 156 160 157 153 155 168 167 176 192 206 282 332 340 348 3 1 358 356 356 353 351 348 346 345 344 345 346 347 347 350 348 354 355 350
Wind_Speed_850mb
1 7 11 18 13 6 4 5 3 5 10 4 5 0 13 27 39 38 34 31 32 30 27 30 34 35 35 36 39 45 52 57 62 67 70 67 65 61 60 62 58 60 67 65
6 11 19 8 10 10 10 7 4 3 11 4 1 3 12 14 14 28 33 27 24 19 21 28 35 40 43 45 48 52 55 59 65 69 72 73 74 70 65 64 67 67 66 68
11 12 6 13 10 8 5 7 5 5 7 9 6 11 10 10 30 29 25 24 22 16 16 24 33 42 46 51 56 61 65 66 65 67 66 68 73 74 74 73 71 67 73 73
11 16 14 10 11 14 9 3 8 8 5 7 0 9 6 11 12 14 25 23 20 12 14 23 32 41 47 54 60 64 69 69 67 65 64 65 69 77 80 80 77 75 72 75
15 4 9 11 11 12 10 7 5 4 5 4 4 2 4 16 10 12 19 21 14 10 11 19 28 36 44 53 60 65 69 69 67 65 63 64 63 64 68 73 80 82 81 79
14 4 5 11 5 6 16 10 14 10 5 8 19 17 9 12 13 14 18 17 11 6 10 16 24 32 42 52 61 70 67 64 63 62 59 60 63 67 71 72 74 80 84 82
2 8 7 11 11 5 11 13 2 5 1 12 0 7 10 4 18 24 27 22 12 3 8 17 27 36 46 54 61 62 60 60 61 61 60 60 61 63 67 69 76 85 86 85
19 8 18 12 16 14 12 15 11 12 8 6 4 11 8 9 33 39 30 21 12 3 4 14 19 28 37 46 52 53 56 58 60 60 62 63 63 65 65 68 74 79 81 82
12 10 6 3 8 17 10 9 7 10 2 2 7 7 3 8 9 23 23 18 12 5 3 6 14 23 32 41 45 49 52 57 60 60 62 65 67 66 68 67 69 71 77 76
10 3 3 5 9 12 10 13 7 3 8 10 8 7 9 24 24 16 19 24 19 12 9 5 11 19 29 37 43 47 52 59 61 59 62 66 66 64 64 66 66 68 70 71
11 9 5 6 10 15 6 4 6 7 8 8 4 10 12 27 26 26 30 33 23 15 10 5 11 20 30 38 44 49 52 58 62 62 64 68 67 62 60 61 64 64 65 65
12 10 9 15 7 9 9 14 13 9 10 4 6 15 8 12 28 40 39 33 24 16 8 6 12 21 30 38 45 48 54 60 63 61 63 67 65 61 62 61 59 60 59 58
17 10 7 6 11 3 10 9 9 9 5 13 10 10 5 20 29 43 43 37 26 14 8 7 13 20 27 35 41 44 51 59 62 64 67 68 62 59 57 56 57 56 55 57
34 7 15 19 10 10 11 13 13 13 6 8 15 8 10 15 21 34 39 35 25 16 12 9 12 17 27 35 38 44 52 59 61 66 69 69 61 55 54 52 56 52 50 51
10 16 9 3 7 8 11 11 18 21 22 17 19 23 22 32 30 43 47 32 24 17 10 9 14 21 29 35 41 48 54 57 61 67 66 63 55 51 51 52 53 50 51 51
5 5 5 6 3 4 8 9 14 13 7 16 10 16 7 40 39 41 37 30 24 15 9 11 16 23 30 35 41 47 50 54 61 64 62 56 50 51 52 52 52 50 50 56
2 12 7 6 3 6 19 18 21 12 11 15 20 17 12 14 33 41 36 30 23 13 8 10 13 18 25 32 39 45 46 53 60 60 57 51 48 49 52 52 52 48 49 57
12 11 4 6 5 13 4 7 10 17 2 4 4 16 22 27 28 33 30 25 12 10 9 10 10 17 24 31 39 41 47 54 56 54 50 47 47 48 50 53 53 49 47 55
7 9 6 9 8 11 12 5 10 13 7 3 14 20 38 53 39 20 16 8 11 15 14 10 11 19 28 37 39 43 48 50 51 47 46 44 46 49 47 52 52 49 49 49
10 7 8 6 10 13 7 10 7 13 5 2 27 32 42 34 8 7 20 20 21 17 11 9 15 25 33 36 39 43 45 45 44 45 43 42 42 46 44 49 51 49 48 47
6 3 10 6 6 11 11 7 3 9 10 29 35 44 38 9 8 36 31 27 18 11 6 13 23 29 33 34 37 38 39 40 41 41 37 39 40 45 43 48 49 47 49 49
12 12 7 6 5 12 12 7 11 12 27 42 42 39 32 36 42 40 32 23 13 7 11 19 25 27 28 30 32 33 36 38 38 38 36 38 41 40 42 48 50 46 47 50
3 12 12 12 10 3 3 4 19 49 58 42 38 38 40 49 44 35 26 15 7 8 16 20 20 21 22 24 28 32 35 37 39 36 34 37 40 39 42 47 49 50 48 50
2 6 8 8 3 4 20 37 36 44 45 37 35 36 40 41 33 26 16 7 5 12 14 14 14 16 20 25 28 31 33 35 39 36 33 36 41 39 40 43 44 45 47 49
9 15 12 6 8 21 19 39 47 44 38 40 36 35 34 28 25 16 10 5 6 8 10 11 12 15 21 28 31 32 34 37 41 36 35 38 43 38 39 42 42 42 41 38
12 12 9 9 34 13 29 46 43 44 45 41 41 38 27 15 18 14 10 5 2 5 6 7 11 15 23 28 31 32 34 37 39 37 38 41 44 38 38 43 44 32 38 41
Wind_Direction_850mb
108 86 220 217 210 178 14 268 327 317 350 64 282 118 119 116 112 118 122 113 96 84 72 55 46 40 31 21 12 5 359 356 352 349 348 349 349 343 334 329 328 322 318 315
5 239 234 197 243 246 236 234 260 49 354 82 235 277 81 67 83 123 124 114 108 98 68 50 39 32 25 18 11 6 1 356 352 348 346 344 340 338 337 331 326 324 321 318
189 237 70 170 226 251 218 180 202 169 355 19 100 311 129 72 102 110 109 109 113 99 63 43 36 28 19 15 10 4 358 354 347 343 339 335 332 331 329 327 326 323 322 321
228 251 247 212 213 153 199 184 127 124 113 220 232 273 171 165 132 129 134 126 125 102 61 39 29 19 13 9 4 360 355 351 347 344 340 339 336 334 333 331 327 325 322 321
231 221 204 206 198 158 193 140 141 119 114 62 234 251 303 131 179 175 155 149 138 104 53 38 22 11 5 0 355 353 350 347 346 344 342 339 336 333 328 326 325 327 325 323
217 227 174 183 75 132 129 89 44 35 77 273 198 180 220 194 181 154 174 169 158 117 43 26 9 0 358 354 352 350 350 351 349 348 348 344 341 336 331 329 327 326 326 326
133 209 176 159 100 42 85 95 327 321 257 237 20 183 266 162 159 167 174 175 159 114 17 2 352 351 350 350 349 349 352 354 353 350 348 345 341 337 334 333 330 330 330 328
185 249 170 189 183 169 185 153 165 219 208 258 323 235 285 157 165 169 168 166 159 153 8 345 344 345 346 347 349 351 353 353 353 352 349 346 343 339 336 333 331 330 330 328
168 243 24 17 146 146 182 187 164 107 358 94 227 287 280 142 160 163 175 173 180 191 263 296 326 338 346 350 352 355 354 353 353 352 347 348 346 342 339 336 333 331 332 330
184 132 180 198 102 36 153 154 89 23 194 228 260 252 234 191 195 180 188 193 194 189 195 280 323 341 352 353 354 354 354 354 352 348 346 346 345 340 337 335 337 334 330 331
143 126 241 143 215 163 122 164 84 129 159 190 257 250 215 203 180 181 190 199 194 197 208 275 328 344 348 348 349 352 352 352 351 348 345 343 341 339 338 336 338 336 332 332
180 137 173 203 265 192 166 174 156 141 219 243 151 265 331 163 159 165 185 189 187 195 226 278 322 332 338 342 347 347 345 348 350 346 343 343 340 338 337 338 337 335 334 332
181 197 117 356 351 338 206 190 132 115 96 188 161 258 99 138 150 173 180 182 186 188 205 263 309 333 341 343 346 344 343 348 347 345 341 341 340 338 337 337 334 337 334 335
166 145 183 207 182 146 188 189 170 149 156 198 226 186 193 188 173 181 184 182 179 178 197 266 314 336 341 342 344 343 343 345 344 342 339 339 341 340 340 339 341 343 340 338
150 188 160 167 122 140 196 180 166 198 216 198 239 224 200 195 191 186 182 173 168 179 226 281 319 332 337 339 343 341 342 341 340 339 340 340 340 341 342 343 344 344 347 349
347 157 110 157 215 208 244 211 209 218 222 246 245 249 210 198 176 173 178 173 175 193 233 294 315 327 335 337 339 337 336 336 337 337 340 341 341 343 345 345 345 345 348 352
100 142 116 220 155 47 280 189 211 215 197 186 218 224 143 150 164 167 170 174 178 198 249 286 307 322 328 332 333 332 333 332 334 338 341 344 343 343 344 344 346 348 349 352
158 115 94 125 105 239 237 247 203 195 90 274 101 159 158 138 137 156 166 166 178 215 223 240 278 310 323 325 327 329 329 333 336 341 345 347 344 342 344 344 347 348 349 350
163 124 124 161 204 306 280 201 146 167 216 307 128 108 110 119 118 121 148 159 175 196 213 240 293 316 319 321 327 329 332 337 341 347 350 349 349 345 346 346 349 351 350 348
65 88 123 173 190 221 244 285 275 116 287 145 142 138 138 140 145 217 164 179 176 189 206 264 303 313 315 323 329 333 338 343 348 350 350 348 347 346 348 348 347 348 349 351
132 69 156 124 212 288 243 227 125 169 232 144 143 148 155 147 178 154 165 162 174 191 255 306 312 317 323 327 331 338 345 350 351 348 346 348 347 346 349 347 348 347 351 354
151 139 175 93 100 265 205 126 179 163 129 145 145 155 162 143 141 149 160 165 179 234 299 312 317 321 327 331 337 346 349 350 348 347 347 349 349 348 350 349 348 353 355 356
158 175 171 164 205 237 254 177 146 149 147 148 147 149 153 151 154 161 163 174 208 297 317 321 326 332 337 344 348 350 351 349 348 348 347 348 348 351 353 350 352 353 355 356
179 147 105 109 251 91 125 132 141 150 144 149 155 155 161 157 163 164 169 188 286 313 321 331 334 339 352 357 354 351 351 347 348 348 346 349 350 352 352 354 357 355 355 355
192 142 130 81 99 106 126 141 144 141 142 147 153 159 163 164 162 169 179 226 285 319 335 338 345 355 358 356 355 355 353 348 347 347 342 346 349 351 349 355 356 353 357 352
192 161 149 208 185 148 168 153 155 152 156 160 157 153 155 168 167 176 192 206 282 332 340 348 3 1 358 356 356 353 351 348 346 345 344 345 346 347 347 350 348 354 355 350